Hat Yai, Thailand

10:40 PM +07 on August 16, 2017 (GMT +0700)
Hat Yai International

Weather History for VTSS - July, 2013

Change the Weather History Date:

Friday, July 19, 2013

  Actual Average Record
Temperature  
Mean Temperature 82 °F -  
Max Temperature 88 °F 88 °F 95 °F (2005)
Min Temperature 77 °F 74 °F 71 °F (2014)
Cooling Degree Days 18    
Growing Degree Days 32 (Base 50)    
Moisture  
Dew Point 75 °F    
Average Humidity 79    
Maximum Humidity 94    
Minimum Humidity 51    
Precipitation  
Precipitation 0.00 in - - ()
Sea Level Pressure  
Sea Level Pressure 29.77 in    
Wind  
Wind Speed 3 mph ()    
Max Wind Speed 8 mph    
Max Gust Speed -    
Visibility 6.2 miles    
Events      
Averages and records for this station are not official NWS values.
T = Trace of Precipitation, MM = Missing Value Source: Averaged Metar Reports

Daily Weather History Graph

Daily Weather History Graph

Search for Another Location

Airport or City:

Trip Planner

Search our weather history database for the weather conditions in past years. The results will help you decide how hot, cold, wet, or windy it might be!

Date:

Astronomy

Jul. 19, 2013 Rise Set
Actual Time 6:10 AM +07 6:38 PM +07
Civil Twilight 5:48 AM +07 7:01 PM +07
Nautical Twilight 5:21 AM +07 7:27 PM +07
Astronomical Twilight 4:55 AM +07 7:53 PM +07
Moon 3:09 PM +07 (7/19) 2:17 AM +07 (7/19)
Length of Visible Light 13h 13m
Length of Day
12h 28m
Waxing Gibbous, 82% of the Moon is Illuminated
Jul 19
Waxing Gibbous
Jul 23
Full
Jul 30
Last Quarter
Aug 7
New
Aug 14
First Quarter

Hourly Weather History & Observations

Time (+07) Temp. Heat Index Dew Point Humidity Pressure Visibility Wind Dir Wind Speed Gust Speed Precip Events Conditions
12:00 AM 78.8 °F - 73.4 °F 83% 29.80 in 6.2 mi SSW 4.6 mph - N/A   Overcast
12:30 AM 78.8 °F - 75.2 °F 89% 29.80 in 6.2 mi South 3.5 mph - N/A   Overcast
1:00 AM 79 °F - 74 °F 82% 29.77 in 6 mi SSE 3.5 mph - -   Overcast
1:00 AM 78.8 °F - 75.2 °F 89% 29.77 in 6.2 mi SSE 3.5 mph - N/A   Overcast
1:30 AM 78.8 °F - 75.2 °F 89% 29.77 in 6.2 mi South 2.3 mph - N/A   Overcast
2:00 AM 78.8 °F - 73.4 °F 83% 29.74 in 6.2 mi Calm Calm - N/A   Overcast
2:30 AM 77.0 °F - 73.4 °F 89% 29.74 in 6.2 mi SSE 2.3 mph - N/A   Overcast
3:00 AM 77.0 °F - 73.4 °F 89% 29.74 in 6.2 mi SSE 2.3 mph - N/A   Overcast
3:30 AM 78.8 °F - 75.2 °F 89% 29.71 in 6.2 mi Calm Calm - N/A   Overcast
4:00 AM 77.0 °F - 73.4 °F 89% 29.71 in 6.2 mi Calm Calm - N/A   Overcast
4:30 AM 77.0 °F - 73.4 °F 89% 29.71 in 6.2 mi Calm Calm - N/A   Overcast
5:00 AM 77.0 °F - 75.2 °F 94% 29.74 in 6.2 mi Calm Calm - N/A   Overcast
5:30 AM 77.0 °F - 75.2 °F 94% 29.74 in 5.6 mi Calm Calm - N/A   Overcast
6:00 AM 77.0 °F - 75.2 °F 94% 29.74 in 5.6 mi Calm Calm - N/A   Overcast
6:30 AM 77.0 °F - 75.2 °F 94% 29.74 in 6.2 mi Calm Calm - N/A   Overcast
7:00 AM 78 °F - 75 °F 88% 29.76 in 6 mi Calm Calm - -   Overcast
7:00 AM 77.0 °F - 75.2 °F 94% 29.77 in 6.2 mi Calm Calm - N/A   Overcast
7:30 AM 78.8 °F - 75.2 °F 89% 29.77 in 6.2 mi Calm Calm - N/A   Overcast
8:00 AM 78.8 °F - 75.2 °F 89% 29.80 in 6.2 mi SSE 2.3 mph - N/A   Overcast
8:30 AM 78.8 °F - 75.2 °F 89% 29.80 in 6.2 mi South 2.3 mph - N/A   Overcast
9:00 AM 78.8 °F - 77.0 °F 94% 29.80 in 6.2 mi South 2.3 mph - N/A   Overcast
9:30 AM 82.4 °F 90.9 °F 77.0 °F 84% 29.83 in 6.2 mi SSW 2.3 mph - N/A   Overcast
10:00 AM 82.4 °F 90.9 °F 77.0 °F 84% 29.83 in 6.2 mi SSW 3.5 mph - N/A   Overcast
10:30 AM 84.2 °F 92.3 °F 75.2 °F 74% 29.80 in 6.2 mi SW 5.8 mph - N/A   Overcast
11:00 AM 86.0 °F 95.1 °F 75.2 °F 70% 29.80 in 6.2 mi SW 6.9 mph - N/A   Overcast
11:30 AM 87.8 °F 97.6 °F 75.2 °F 66% 29.80 in 6.2 mi SSW 6.9 mph - N/A   Overcast
12:00 PM 87.8 °F 95.6 °F 73.4 °F 62% 29.77 in 6.2 mi SW 6.9 mph - N/A   Overcast
12:30 PM 87.8 °F 95.6 °F 73.4 °F 62% 29.77 in 6.2 mi WSW 8.1 mph - N/A   Overcast
1:00 PM 89 °F - 73 °F 51% 29.77 in 6 mi WSW 6.9 mph - -   Overcast
1:00 PM 87.8 °F 95.6 °F 73.4 °F 62% 29.77 in 6.2 mi WSW 6.9 mph - N/A   Overcast
1:30 PM 87.8 °F 93.8 °F 71.6 °F 58% 29.74 in 6.2 mi South 5.8 mph - N/A   Overcast
2:00 PM 87.8 °F 93.8 °F 71.6 °F 58% 29.74 in 6.2 mi WSW 6.9 mph - N/A   Overcast
2:30 PM 87.8 °F 95.6 °F 73.4 °F 62% 29.71 in 6.2 mi SW 8.1 mph - N/A   Overcast
3:00 PM 86.0 °F 93.4 °F 73.4 °F 66% 29.71 in 6.2 mi West 6.9 mph - N/A   Overcast
3:30 PM 86.0 °F 91.8 °F 71.6 °F 62% 29.71 in 6.2 mi WSW 5.8 mph - N/A   Overcast
4:00 PM 86.0 °F 93.4 °F 73.4 °F 66% 29.71 in 6.2 mi WSW 5.8 mph - N/A   Overcast
4:30 PM 86.0 °F 93.4 °F 73.4 °F 66% 29.71 in 6.2 mi WSW 4.6 mph - N/A   Overcast
5:00 PM 84.2 °F 92.3 °F 75.2 °F 74% 29.74 in 6.2 mi SW 4.6 mph - N/A   Overcast
5:30 PM 84.2 °F 92.3 °F 75.2 °F 74% 29.74 in 6.2 mi SSW 3.5 mph - N/A   Overcast
6:00 PM 84.2 °F 92.3 °F 75.2 °F 74% 29.74 in 6.2 mi SSW 3.5 mph - N/A   Overcast
6:30 PM 82.4 °F 90.9 °F 77.0 °F 84% 29.74 in 6.2 mi South 4.6 mph - N/A   Overcast
7:00 PM 82 °F - 76 °F 76% 29.78 in 6 mi South 4.6 mph - -   Overcast
7:00 PM 82.4 °F 89.5 °F 75.2 °F 79% 29.77 in 6.2 mi South 4.6 mph - N/A   Overcast
7:30 PM 82.4 °F 89.5 °F 75.2 °F 79% 29.77 in 6.2 mi South 3.5 mph - N/A   Overcast
8:00 PM 82.4 °F 89.5 °F 75.2 °F 79% 29.77 in 6.2 mi South 4.6 mph - N/A   Overcast
8:30 PM 82.4 °F 89.5 °F 75.2 °F 79% 29.80 in 6.2 mi South 6.9 mph - N/A   Overcast
9:00 PM 82.4 °F 89.5 °F 75.2 °F 79% 29.80 in 6.2 mi South 6.9 mph - N/A   Overcast
9:30 PM 80.6 °F 86.2 °F 75.2 °F 84% 29.83 in 6.2 mi South 6.9 mph - N/A   Overcast
10:00 PM 80.6 °F 86.2 °F 75.2 °F 84% 29.83 in 6.2 mi South 5.8 mph - N/A   Overcast
10:30 PM 80.6 °F 86.2 °F 75.2 °F 84% 29.83 in 6.2 mi South 5.8 mph - N/A   Overcast
11:00 PM 80.6 °F 86.2 °F 75.2 °F 84% 29.83 in 6.2 mi South 5.8 mph - N/A   Mostly Cloudy
11:30 PM 78.8 °F - 75.2 °F 89% 29.83 in 6.2 mi SSW 5.8 mph - N/A   Mostly Cloudy